GW3060 Weather Reports


time (UTC)temp
F
wind
direction
speed
knots
gust
knots
rain 1hr
in
rain 24hr
in
rain mn
in
humidity
%
barometer
mb
20260510184525 81 219 0.9 5.2 0.00 0.00 0.00 32 1014.6
20260510184012 81 69 0.9 5.2 0.00 0.00 0.00 33 1014.7
20260510183512 81 199 1.7 3.5 0.00 0.00 0.00 39 1014.7
20260510183011 81 200 1.7 3.5 0.00 0.00 0.00 34 1014.7
20260510182511 81 340 0.9 4.3 0.00 0.00 0.00 32 1014.7
20260510182012 81 2 1.7 5.2 0.00 0.00 0.00 36 1014.8
20260510181512 81 354 1.7 5.2 0.00 0.00 0.00 35 1014.9
20260510181012 81 169 0.9 3.5 0.00 0.00 0.00 38 1014.9
20260510180512 81 302 1.7 4.3 0.00 0.00 0.00 40 1015.0
20260510180012 80 185 1.7 4.3 0.00 0.00 0.00 38 1015.1
20260510175512 80 151 1.7 3.5 0.00 0.00 0.00 34 1015.0
20260510175012 81 29 1.7 3.5 0.00 0.00 0.00 36 1015.1
20260510174512 80 357 1.7 3.5 0.00 0.00 0.00 37 1015.3
20260510174012 80 73 1.7 3.5 0.00 0.00 0.00 36 1015.2
20260510173512 80 111 0.9 3.5 0.00 0.00 0.00 41 1015.3
20260510173012 80 183 1.7 3.5 0.00 0.00 0.00 41 1015.2
20260510172512 80 210 0.9 2.6 0.00 0.00 0.00 37 1015.3
20260510172012 80 50 0.9 1.7 0.00 0.00 0.00 38 1015.3
20260510171512 80 26 0.9 2.6 0.00 0.00 0.00 39 1015.3
20260510171023 79 69 0.9 3.5 0.00 0.00 0.00 40 1015.3
20260510170523 79 53 0.9 3.5 0.00 0.00 0.00 39 1015.3
20260510170012 80 192 1.7 3.5 0.00 0.00 0.00 36 1015.5
20260510165512 79 310 0.9 3.5 0.00 0.00 0.00 36 1015.5
20260510165012 79 48 0.9 3.5 0.00 0.00 0.00 36 1015.6
20260510164523 79 215 0.9 3.5 0.00 0.00 0.00 38 1015.6
20260510164012 79 99 0.9 3.5 0.00 0.00 0.00 38 1015.6
20260510163512 79 36 0.9 2.6 0.00 0.00 0.00 38 1015.7
20260510163012 78 304 0.9 2.6 0.00 0.00 0.00 37 1015.6
20260510162512 78 219 0.0 2.6 0.00 0.00 0.00 39 1015.8
20260510162012 78 221 1.7 4.3 0.00 0.00 0.00 37 1015.8
20260510161512 78 2 2.6 4.3 0.00 0.00 0.00 35 1015.9
20260510161012 78 169 0.0 2.6 0.00 0.00 0.00 44 1015.8
20260510160512 78 169 0.9 3.5 0.00 0.00 0.00 42 1015.8
20260510160012 78 346 0.9 3.5 0.00 0.00 0.00 41 1015.8
20260510155512 79 273 0.9 1.7 0.00 0.00 0.00 49 1015.9
20260510155013 78 273 0.9 2.6 0.00 0.00 0.00 52 1015.9
20260510154512 78 273 1.7 2.6 0.00 0.00 0.00 42 1016.0
20260510154012 78 127 0.9 1.7 0.00 0.00 0.00 42 1015.9
20260510153523 78 312 0.9 1.7 0.00 0.00 0.00 49 1015.9
20260510153012 77 309 0.9 1.7 0.00 0.00 0.00 43 1015.9
20260510152512 77 269 0.0 1.7 0.00 0.00 0.00 52 1015.9
20260510152023 77 269 0.9 1.7 0.00 0.00 0.00 48 1016.0
20260510151512 77 252 0.9 1.7 0.00 0.00 0.00 46 1015.9
20260510151012 76 94 0.9 1.7 0.00 0.00 0.00 51 1016.0
20260510150512 76 70 0.9 2.6 0.00 0.00 0.00 49 1016.0
20260510150012 76 88 0.9 3.5 0.00 0.00 0.00 49 1016.1
20260510145512 76 149 0.9 3.5 0.00 0.00 0.00 53 1016.0
20260510145012 75 351 0.0 0.9 0.00 0.00 0.00 52 1016.0
20260510144523 74 351 0.0 3.5 0.00 0.00 0.00 54 1016.0
20260510144012 74 352 0.9 3.5 0.00 0.00 0.00 50 1016.0
20260510143512 74 339 0.9 3.5 0.00 0.00 0.00 53 1016.1
20260510143012 73 339 0.9 3.5 0.00 0.00 0.00 54 1016.1
20260510142512 73 314 0.9 1.7 0.00 0.00 0.00 57 1016.1
20260510142012 73 315 1.7 2.6 0.00 0.00 0.00 58 1016.1
20260510141512 72 110 0.9 2.6 0.00 0.00 0.00 57 1016.1
20260510141012 71 2 0.9 2.6 0.00 0.00 0.00 61 1016.0
20260510140512 70 112 0.9 1.7 0.00 0.00 0.00 65 1016.1
20260510140012 70 113 0.9 1.7 0.00 0.00 0.00 61 1016.1
20260510135512 69 113 0.9 2.6 0.00 0.00 0.00 69 1016.2
20260510135012 68 52 0.9 2.6 0.00 0.00 0.00 67 1016.1
20260510134512 67 18 0.9 2.6 0.00 0.00 0.00 72 1016.0
20260510134012 66 284 0.9 1.7 0.00 0.00 0.00 76 1016.0
20260510133524 65 284 0.9 1.7 0.00 0.00 0.00 86 1015.9
20260510133023 64 285 0.0 0.9 0.00 0.00 0.00 89 1015.9
20260510132512 63 285 0.0 1.7 0.00 0.00 0.00 93 1015.8
20260510132023 61 285 0.0 1.7 0.00 0.00 0.00 96 1015.9
20260510131512 61 285 0.9 1.7 0.00 0.00 0.00 96 1015.9
20260510131012 61 285 0.0 1.7 0.00 0.00 0.00 96 1016.0
20260510130512 60 283 0.0 0.9 0.00 0.00 0.00 96 1016.0
20260510130012 60 283 0.0 0.9 0.00 0.00 0.00 96 1016.0
20260510125523 59 283 0.0 0.0 0.00 0.00 0.00 96 1016.0
20260510125035 58 283 0.0 0.0 0.00 0.00 0.00 96 1016.0
20260510124524 58 283 0.0 0.0 0.00 0.00 0.00 96 1015.9
20260510124012 57 283 0.0 0.0 0.00 0.00 0.00 96 1015.9
20260510123512 56 283 0.0 0.9 0.00 0.00 0.00 96 1015.7
20260510123012 56 241 0.0 0.9 0.00 0.00 0.00 96 1015.6
20260510122512 55 141 0.0 0.0 0.00 0.00 0.00 96 1015.5
20260510122012 55 141 0.0 0.0 0.00 0.00 0.00 96 1015.4
20260510121512 55 141 0.0 0.0 0.00 0.00 0.00 96 1015.4
20260510121012 54 141 0.0 0.0 0.00 0.00 0.00 96 1015.3
20260510120512 54 141 0.0 0.0 0.00 0.00 0.00 96 1015.2
20260510120013 54 141 0.0 0.0 0.00 0.00 0.00 96 1015.0
20260510115512 53 141 0.0 0.0 0.00 0.00 0.00 96 1015.0
20260510115012 53 141 0.0 0.0 0.00 0.00 0.00 95 1015.0
20260510114512 53 141 0.0 0.0 0.00 0.00 0.00 96 1014.8
20260510114012 53 141 0.0 0.0 0.00 0.00 0.00 96 1014.7
20260510113512 53 141 0.0 0.0 0.00 0.00 0.00 96 1014.6
20260510113012 53 141 0.0 0.0 0.00 0.00 0.00 95 1014.6
20260510112512 53 141 0.0 0.0 0.00 0.00 0.00 95 1014.5
20260510112012 53 141 0.0 0.0 0.00 0.00 0.00 95 1014.4
20260510111512 53 141 0.0 0.0 0.00 0.00 0.00 95 1014.4
20260510111012 52 141 0.0 0.0 0.00 0.00 0.00 95 1014.4
20260510110512 52 141 0.0 0.0 0.00 0.00 0.00 95 1014.3
20260510110012 52 141 0.0 0.0 0.00 0.00 0.00 95 1014.2
20260510105512 52 141 0.0 0.0 0.00 0.00 0.00 95 1014.1
20260510105012 52 141 0.0 0.0 0.00 0.00 0.00 95 1014.0
20260510104512 52 141 0.0 0.0 0.00 0.00 0.00 95 1013.9
20260510104012 52 141 0.0 0.9 0.00 0.00 0.00 95 1013.9
20260510103523 52 141 0.0 0.9 0.00 0.00 0.00 94 1013.7
20260510103012 53 141 0.0 0.0 0.00 0.00 0.00 94 1013.6
20260510102512 53 141 0.0 0.0 0.00 0.00 0.00 95 1013.5
20260510102012 53 141 0.0 0.0 0.00 0.00 0.00 95 1013.5
20260510101512 53 141 0.0 0.0 0.00 0.00 0.00 94 1013.5
20260510101012 53 141 0.0 0.0 0.00 0.00 0.00 94 1013.4
20260510100512 53 141 0.0 0.0 0.00 0.00 0.00 94 1013.4
20260510100012 53 141 0.0 0.0 0.00 0.00 0.00 94 1013.4
20260510095512 53 141 0.0 0.0 0.00 0.00 0.00 94 1013.3
20260510095013 54 141 0.0 0.0 0.00 0.00 0.00 94 1013.3
20260510094512 54 141 0.0 0.0 0.00 0.00 0.00 94 1013.1
20260510094012 54 141 0.0 0.0 0.00 0.00 0.00 94 1013.1
20260510093527 54 141 0.0 0.0 0.00 0.00 0.00 94 1013.1
20260510093012 54 141 0.0 0.0 0.00 0.00 0.00 94 1013.1
20260510092512 54 141 0.0 0.0 0.00 0.00 0.00 95 1013.1
20260510092013 55 141 0.0 0.0 0.00 0.00 0.00 95 1013.1
20260510091513 55 141 0.0 0.0 0.00 0.00 0.00 95 1013.0
20260510091012 55 141 0.0 0.0 0.00 0.00 0.00 95 1013.0
20260510090513 55 141 0.0 0.0 0.00 0.00 0.00 94 1013.0
20260510090024 55 141 0.0 0.0 0.00 0.00 0.00 94 1013.0
20260510085512 55 141 0.0 0.0 0.00 0.00 0.00 94 1012.8
20260510085024 55 141 0.0 0.0 0.00 0.00 0.00 94 1012.8
20260510084524 55 141 0.0 0.0 0.00 0.00 0.00 94 1012.8
20260510084023 55 141 0.0 0.0 0.00 0.00 0.00 94 1012.8
20260510083513 55 141 0.0 0.0 0.00 0.00 0.00 94 1012.8
20260510083024 55 141 0.0 0.0 0.00 0.00 0.00 94 1012.7
20260510082513 55 141 0.0 0.0 0.00 0.00 0.00 94 1012.6
20260510082012 55 141 0.0 0.0 0.00 0.00 0.00 94 1012.5
20260510081512 56 141 0.0 0.0 0.00 0.00 0.00 94 1012.4
20260510081012 56 141 0.0 0.0 0.00 0.00 0.00 94 1012.3
20260510080513 56 141 0.0 0.0 0.00 0.00 0.00 94 1012.3
20260510080024 56 141 0.0 0.0 0.00 0.00 0.00 94 1012.3
20260510075513 56 141 0.0 0.0 0.00 0.00 0.00 94 1012.3
20260510075013 56 141 0.0 0.0 0.00 0.00 0.00 94 1012.2
20260510074512 56 141 0.0 0.0 0.00 0.00 0.00 94 1012.2
20260510074013 57 141 0.0 0.0 0.00 0.00 0.00 94 1012.2
20260510073512 57 141 0.0 0.0 0.00 0.00 0.00 94 1012.2
20260510073013 57 141 0.0 0.0 0.00 0.00 0.00 94 1012.2
20260510072512 57 141 0.0 0.0 0.00 0.00 0.00 94 1012.2
20260510072012 57 141 0.0 0.0 0.00 0.00 0.00 94 1012.2
20260510071513 57 141 0.0 0.0 0.00 0.00 0.00 94 1012.1
20260510071013 57 141 0.0 0.0 0.00 0.00 0.00 94 1012.0
20260510070513 57 141 0.0 0.0 0.00 0.00 0.00 94 1012.0
20260510070013 57 141 0.0 0.0 0.00 0.00 0.00 94 1012.0
20260510065513 57 141 0.0 0.0 0.00 0.00 0.00 94 1012.0
20260510065013 57 141 0.0 0.0 0.00 0.00 0.00 94 1012.1
20260510064513 58 141 0.0 0.9 0.00 0.00 0.00 94 1012.0
20260510064013 58 141 0.0 0.9 0.00 0.00 0.00 94 1012.0
20260510063513 58 141 0.0 0.9 0.00 0.00 0.00 94 1012.0
20260510063013 58 141 0.0 0.0 0.00 0.00 0.00 94 1012.0
20260510062513 58 141 0.0 0.0 0.00 0.00 0.00 94 1012.2
20260510062013 58 141 0.0 0.0 0.00 0.00 0.00 94 1012.1
20260510061512 58 141 0.0 0.0 0.00 0.00 0.00 94 1012.2
20260510061013 58 141 0.0 0.9 0.00 0.00 0.00 93 1012.2
20260510060513 58 141 0.0 0.9 0.00 0.00 0.00 94 1012.2
20260510060013 58 141 0.9 0.9 0.00 0.00 0.00 94 1012.1
20260510055513 58 141 0.0 0.9 0.00 0.00 0.00 94 1012.0
20260510055035 58 141 0.0 0.9 0.00 0.00 0.00 93 1012.0
20260510054524 58 141 0.0 0.0 0.00 0.00 0.00 93 1012.1
20260510054024 59 141 0.0 0.0 0.00 0.00 0.00 93 1012.2
20260510053513 59 141 0.0 0.0 0.00 0.00 0.00 93 1012.3
20260510053013 59 141 0.0 0.0 0.00 0.00 0.00 93 1012.3
20260510052513 59 141 0.0 0.0 0.00 0.00 0.00 93 1012.3
20260510052013 59 141 0.0 0.0 0.00 0.00 0.00 93 1012.3
20260510051513 59 141 0.0 0.0 0.00 0.00 0.00 93 1012.4
20260510051013 59 141 0.0 0.0 0.00 0.00 0.00 93 1012.5
20260510050513 59 141 0.0 0.0 0.00 0.00 0.00 93 1012.4
20260510050013 59 141 0.0 0.0 0.00 0.00 0.00 92 1012.4
20260510045524 59 141 0.0 0.0 0.00 0.00 0.00 92 1012.3
20260510045013 60 141 0.0 0.0 0.00 0.00 0.00 92 1012.3
20260510044513 60 141 0.0 0.0 0.00 0.00 0.00 92 1012.4
20260510044013 60 141 0.0 0.0 0.00 0.00 0.00 92 1012.4
20260510043524 60 141 0.0 0.0 0.00 0.00 0.00 92 1012.4
20260510043013 60 141 0.0 0.0 0.00 0.00 0.00 92 1012.3
20260510042524 60 141 0.0 0.0 0.00 0.00 0.00 92 1012.2
20260510042013 60 141 0.0 0.0 0.00 0.00 0.00 91 1012.2
20260510041513 60 141 0.0 0.0 0.00 0.00 0.00 91 1012.2
20260510041013 60 141 0.0 0.0 0.00 0.00 0.00 91 1012.2
20260510040513 60 141 0.0 0.0 0.00 0.00 0.00 91 1012.3
20260510040024 61 141 0.0 0.0 0.00 0.00 0.00 91 1012.2
20260510035513 61 141 0.0 0.0 0.00 0.00 0.00 90 1012.2
20260510035013 61 141 0.0 0.0 0.00 0.00 0.00 90 1012.4
20260510034513 61 141 0.0 0.0 0.00 0.00 0.00 90 1012.4
20260510034013 61 141 0.0 0.0 0.00 0.00 0.00 90 1012.4
20260510033513 61 141 0.0 0.0 0.00 0.00 0.00 90 1012.4
20260510033013 61 141 0.0 0.0 0.00 0.00 0.00 90 1012.3
20260510032524 61 141 0.0 0.0 0.00 0.00 0.00 90 1012.3
20260510032013 61 141 0.0 0.9 0.00 0.00 0.00 90 1012.3
20260510031535 61 141 0.0 0.9 0.00 0.00 0.00 90 1012.3
20260510031013 61 141 0.0 0.9 0.00 0.00 0.00 90 1012.3
20260510030513 61 141 0.0 1.7 0.00 0.00 0.00 90 1012.3
20260510030013 61 141 0.0 1.7 0.00 0.00 0.00 90 1012.2
20260510025513 61 141 0.0 0.9 0.00 0.00 0.00 90 1012.3
20260510025013 62 141 0.0 0.9 0.00 0.00 0.00 89 1012.2
20260510024513 62 141 0.0 0.9 0.00 0.00 0.00 89 1012.2
20260510024013 62 141 0.0 0.0 0.00 0.00 0.00 89 1012.2
20260510023524 62 141 0.0 0.0 0.00 0.00 0.00 89 1012.1
20260510023013 62 141 0.0 0.0 0.00 0.00 0.00 88 1012.1
20260510022513 62 141 0.0 0.9 0.00 0.00 0.00 88 1011.9
20260510022013 62 141 0.0 0.9 0.00 0.00 0.00 88 1011.9
20260510021513 62 141 0.0 0.9 0.00 0.00 0.00 88 1011.8
20260510021013 62 141 0.0 0.0 0.00 0.00 0.00 87 1011.8
20260510020513 62 141 0.0 0.0 0.00 0.00 0.00 87 1011.8
20260510020013 62 141 0.0 0.0 0.00 0.00 0.00 87 1011.9
20260510015513 63 141 0.0 0.0 0.00 0.00 0.00 86 1011.9
20260510015013 63 141 0.0 0.9 0.00 0.00 0.00 86 1011.8
20260510014525 63 141 0.0 0.9 0.00 0.00 0.00 86 1011.7
20260510014013 63 141 0.0 0.9 0.00 0.00 0.00 85 1011.7
20260510013513 63 141 0.0 0.9 0.00 0.00 0.00 85 1011.6
20260510013013 64 141 0.0 0.0 0.00 0.00 0.00 84 1011.5
20260510012525 64 141 0.0 0.0 0.00 0.00 0.00 84 1011.3
20260510012013 64 141 0.0 0.0 0.00 0.00 0.00 84 1011.2
20260510011514 65 141 0.0 0.0 0.00 0.00 0.00 83 1011.1
20260510011013 65 141 0.0 0.0 0.00 0.00 0.00 82 1011.0
20260510010513 65 141 0.0 0.9 0.00 0.00 0.00 82 1010.9
20260510010024 66 141 0.0 0.9 0.00 0.00 0.00 81 1010.8
20260510005513 66 141 0.0 0.0 0.00 0.00 0.00 81 1010.6
20260510005013 66 141 0.0 0.9 0.00 0.00 0.00 80 1010.7
20260510004513 67 141 0.0 0.9 0.00 0.00 0.00 80 1010.6
20260510004014 67 141 0.0 0.9 0.00 0.00 0.00 78 1010.5
20260510003525 67 141 0.0 0.9 0.00 0.00 0.00 79 1010.5
20260510003013 68 141 0.0 0.9 0.00 0.00 0.00 77 1010.4
20260510002513 68 141 0.0 0.9 0.00 0.00 0.00 76 1010.4
20260510002025 68 141 0.0 1.7 0.00 0.00 0.00 75 1010.3
20260510001513 68 141 0.0 1.7 0.00 0.00 0.00 75 1010.3
20260510001013 69 114 0.0 0.9 0.00 0.00 0.00 74 1010.2
20260510000513 69 201 0.0 0.9 0.00 0.00 0.00 74 1010.2
20260510000013 69 201 0.9 4.3 0.00 0.00 0.00 73 1010.2
20260509235514 69 201 0.9 6.1 0.00 0.00 0.00 73 1010.2
20260509235013 69 192 1.7 6.1 0.00 0.00 0.00 73 1010.1
20260509234513 69 154 0.0 1.7 0.00 0.00 0.00 73 1010.1
20260509234013 69 154 0.9 1.7 0.00 0.00 0.00 73 1010.1
20260509233513 70 135 0.9 1.7 0.00 0.00 0.00 72 1010.0
20260509233013 70 304 0.0 5.2 0.00 0.00 0.00 71 1009.7
20260509232536 70 181 0.9 5.2 0.00 0.00 0.00 71 1009.7
20260509232013 70 207 0.9 2.6 0.00 0.00 0.00 71 1009.9
20260509231513 70 207 0.0 7.0 0.00 0.00 0.00 70 1009.7
20260509231013 70 207 0.9 7.0 0.00 0.00 0.00 70 1009.7
20260509230525 70 213 0.9 4.3 0.00 0.00 0.00 70 1009.6
20260509230014 70 208 0.9 4.3 0.00 0.00 0.00 70 1009.6
20260509225514 71 217 0.9 1.7 0.00 0.00 0.00 70 1009.5
20260509225024 71 217 0.9 3.5 0.00 0.00 0.00 70 1009.4
20260509224513 71 212 0.9 3.5 0.00 0.00 0.00 69 1009.3
20260509224014 71 193 0.9 1.7 0.00 0.00 0.00 70 1009.3
20260509223514 71 56 0.9 1.7 0.00 0.00 0.00 69 1009.3
20260509223013 71 196 0.9 2.6 0.00 0.00 0.00 69 1009.5
20260509222514 71 196 0.9 6.1 0.00 0.00 0.00 68 1009.5
20260509222013 71 169 0.9 6.1 0.00 0.00 0.00 68 1009.5
20260509221514 71 96 0.9 4.3 0.00 0.00 0.00 68 1009.4
20260509221013 72 54 0.0 5.2 0.00 0.00 0.00 68 1009.4
20260509220513 72 54 1.7 5.2 0.00 0.00 0.00 67 1009.5
20260509220014 72 224 0.9 4.3 0.00 0.00 0.00 66 1009.4
20260509215513 72 215 1.7 4.3 0.00 0.00 0.00 65 1009.4
20260509215013 72 151 1.7 3.5 0.00 0.00 0.00 68 1009.4
20260509214525 72 40 0.9 3.5 0.00 0.00 0.00 70 1009.4
20260509214013 72 208 0.9 3.5 0.00 0.00 0.00 67 1009.4
20260509213525 72 202 1.7 5.2 0.00 0.00 0.00 66 1009.4
20260509213025 72 231 2.6 5.2 0.00 0.00 0.00 67 1009.4
20260509212514 72 177 1.7 6.1 0.00 0.00 0.00 67 1009.4
20260509212013 72 229 1.7 6.1 0.00 0.00 0.00 67 1009.4
20260509211513 72 225 1.7 5.2 0.00 0.00 0.00 66 1009.3
20260509211013 71 227 1.7 5.2 0.00 0.00 0.00 68 1009.2
20260509210514 71 82 1.7 6.1 0.00 0.00 0.00 68 1009.2
20260509210026 71 256 0.9 4.3 0.00 0.00 0.00 69 1009.1
20260509205513 71 214 1.7 5.2 0.00 0.00 0.00 68 1009.0
20260509205013 71 199 1.7 5.2 0.00 0.00 0.00 68 1008.9
20260509204514 71 90 0.9 3.5 0.00 0.00 0.00 69 1009.1
20260509204014 71 99 0.9 3.5 0.00 0.00 0.00 68 1009.3
20260509203514 71 58 1.7 4.3 0.00 0.00 0.00 68 1009.3
20260509203013 72 214 1.7 6.1 0.00 0.00 0.00 68 1009.3
20260509202547 72 219 1.7 8.7 0.00 0.00 0.00 68 1009.3
20260509202014 71 204 2.6 8.7 0.00 0.00 0.00 68 1009.5
20260509201514 71 207 1.7 3.5 0.00 0.00 0.00 68 1009.4
20260509201025 72 55 1.7 8.7 0.00 0.00 0.00 68 1009.4
20260509200513 72 201 2.6 8.7 0.00 0.00 0.00 67 1009.5
20260509200013 72 231 1.7 4.3 0.00 0.00 0.00 68 1009.4
20260509195513 72 71 1.7 6.1 0.00 0.00 0.00 68 1009.4
20260509195014 72 63 2.6 6.1 0.00 0.00 0.00 70 1009.4
20260509194513 72 211 1.7 5.2 0.00 0.00 0.00 69 1009.5
20260509194014 71 225 2.6 7.8 0.00 0.00 0.00 69 1009.6
20260509193514 71 193 1.7 7.8 0.00 0.00 0.00 69 1009.7
20260509193014 70 218 0.9 6.1 0.00 0.00 0.00 71 1009.8
20260509192514 70 213 1.7 4.3 0.00 0.00 0.00 70 1010.0
20260509192014 70 148 1.7 3.5 0.00 0.00 0.00 69 1009.9
20260509191514 70 217 0.9 4.3 0.00 0.00 0.00 70 1009.9
20260509191014 70 218 1.7 6.1 0.00 0.00 0.00 70 1010.0
20260509190514 70 229 1.7 6.1 0.00 0.00 0.00 69 1009.9
20260509190025 70 218 0.9 4.3 0.00 0.00 0.00 70 1009.8
20260509185514 70 142 0.9 4.3 0.00 0.00 0.00 68 1009.8
20260509185013 71 181 1.7 2.6 0.00 0.00 0.00 69 1009.8